Location: Pella
(41.4080°N, 92.9160°W)
Time: 16:42:53
(UTC-05:00)

ASTRO E2 - Visible Passes

Search period start: 22 October 2014 00:00
Search period end: 01 November 2014 00:00
Orbit: 533 x 540 km, 31.4° (Epoch: 21 October)

Date Brightness Start Highest point End Pass type
(mag) Time Alt. Az. Time Alt. Az. Time Alt. Az.
27 Oct 5.4 05:35:33 10° S 05:36:34 11° SSE 05:37:34 10° SSE visible
28 Oct 5.3 05:25:13 13° SSE 05:25:20 13° SSE 05:27:07 10° SE visible
28 Oct 4.9 07:02:35 10° SW 07:05:34 20° S 07:08:34 10° SE visible
29 Oct 5.3 05:14:53 14° SSE 05:14:53 14° SSE 05:16:19 10° SE visible
29 Oct 4.8 06:51:21 10° SW 06:54:22 20° S 06:57:23 10° SE visible
30 Oct 5.5 05:04:30 13° SE 05:04:30 13° SE 05:05:22 10° SE visible
30 Oct 4.7 06:40:08 10° SW 06:43:08 20° S 06:46:08 10° SE visible
31 Oct 5.7 04:54:04 11° SE 04:54:04 11° SE 04:54:19 10° SE visible
31 Oct 4.7 06:29:22 12° SW 06:31:54 19° S 06:34:51 10° SE visible
